Location: Arcueil
(48.7999°N, 2.3326°E)
Time: 17:36:29
(UTC+00:00)

EO-79 - Pass Details

Date: 24 June 2024
Orbit: 555 x 577 km, 98.0° (Epoch: 18 July)

Event Time Altitude Azimuth Distance (km) Brightness Sun altitude
Rises 02:35:03 0° 22° (NNE) 2,756 ? -9.3°
Reaches altitude 10° 02:37:24 10° 33° (NNE) 1,853 ? -9.0°
Maximum altitude 02:40:58 30° 96° (E) 1,007 ? -8.7°
Drops below altitude 10° 02:44:30 10° 159° (SSE) 1,835 ? -8.3°
Sets 02:46:48 0° 170° (S) 2,724 ? -8.1°
Enters shadow 02:46:57 -1° 171° (S) 2,783 ? -8.1°
